Location: Schommer Observatory
(40.5200°N, 74.4500°W)
Time: 11:28:44
(UTC-04:00)

Tiangong 2 - Pass Details

Date: 22 May 2018
Orbit: 382 x 385 km, 42.8° (Epoch: 27 May)

Event Time Altitude Azimuth Distance (km) Brightness Sun altitude
Rises 22:04:59 0° 252° (WSW) 2,245 5.3 -17.3°
Reaches altitude 10° 22:07:03 10° 252° (WSW) 1,394 4.2 -17.6°
Maximum altitude 22:10:12 88° 172° (S) 385 0.9 -18.0°
Enters shadow 22:10:50 54° 76° (ENE) 470 1.3 -18.0°
